Location: ?????????
(54.7630°N, 39.4991°E)
Time: 21:55:33
(UTC+00:00)

GP-B - Pass Details

Date: 14 April 2026
Orbit: 617 x 621 km, 89.9° (Epoch: 13 May)

Event Time Altitude Azimuth Distance (km) Brightness Sun altitude
Rises 23:15:00 0° 360° (N) 2,911 7.5 -21.3°
Reaches altitude 10° 23:17:13 10° 359° (N) 1,999 6.5 -21.2°
Maximum altitude 23:21:36 78° 274° (W) 640 3.0 -20.8°
Enters shadow 23:22:26 57° 203° (SSW) 735 3.0 -20.8°
